Regional Weather Roundup
Issued by NWS

Home | Current Version | Previous Version | Text Only | Print | Product List | Glossary Off
Versions: 1 2 3 4 5 6 7 8 9 10 11 12 13 14 15 16 17 18 19 20 21 22 23 24 25 26 27 28 29 30 31 32 33 34 35 36 37 38 39 40 41 42 43 44 45 46 47 48 49 50

857
ASUS43 KFSD 231910
RWRSD

WEATHER ROUNDUP FOR SOUTH DAKOTA
NATIONAL WEATHER SERVICE SIOUX FALLS SD
200 PM CDT SUN JUL 23 2017

NOTE: "FAIR" INDICATES FEW OR NO CLOUDS BELOW 12,000 FEET WITH NO
SIGNIFICANT WEATHER AND/OR OBSTRUCTIONS TO VISIBILITY.


SDZ001>005-009-010-012>017-232000-
NORTHWEST AND NORTH CENTRAL SOUTH DAKOTA

CITY           SKY/WX    TMP DP  RH WIND       PRES   REMARKS
BUFFALO          N/A     88  48  25 S10       29.99F
FAITH            N/A     87  49  26 VRB6      30.05F
MOBRIDGE       SUNNY     81  59  47 VRB7      30.02F
$$

SDZ012>016-024>037-041>051-057-063-072>074-232000-
SOUTHWEST AND SOUTH CENTRAL SOUTH DAKOTA

CITY           SKY/WX    TMP DP  RH WIND       PRES   REMARKS
RAPID CTY ARPT SUNNY     87  45  23 SE8G20    30.08F
PIERRE         SUNNY     84  50  30 CALM      30.02F
CUSTER         SUNNY     79  41  25 E9G20     30.22F
ELLSWORTH AFB  SUNNY     87  46  23 S13G18    30.07F
PHILIP         SUNNY     88  48  25 SE6       30.04F
PINE RIDGE     SUNNY     89  55  31 SE12      30.09F
SPEARFISH      FAIR      88  46  23 E12       30.10F
WINNER         FAIR      88  51  28 N8        30.05F
$$

SDZ004>011-016>023-039-040-232000-
NORTHEAST SOUTH DAKOTA

CITY           SKY/WX    TMP DP  RH WIND       PRES   REMARKS
ABERDEEN       MOSUNNY   79  60  52 N7        30.03F
WATERTOWN      MOSUNNY   74  59  59 N16       30.02F
BROOKINGS      PTSUNNY   74  59  59 N12G18    30.02F
SISSETON         N/A     73  61  65 N14       30.01F
$$

SDZ017-020-022-023-036>040-048>070-232000-
SOUTHEAST SOUTH DAKOTA

CITY           SKY/WX    TMP DP  RH WIND       PRES   REMARKS
SIOUX FALLS    MOSUNNY   79  61  53 N15       30.01S
HURON          SUNNY     78  60  53 N10G18    30.03S
CHAMBERLAIN    SUNNY     87  53  31 N8G16     30.03F
MITCHELL       SUNNY     80  59  48 N10G18    30.03F
YANKTON        SUNNY     83  59  44 N13       30.01F
$$

ABBREVIATIONS USED IN REMARKS
   TC - TEMPERATURE IN CELSIUS
  WCI - WIND CHILL INDEX
   HX - HEAT INDEX
  VSB - VISIBILITY





USA.gov is the U.S. government's official web portal to all federal, state and local government web resources and services.